East Milton, MA

8:35 PM EDT on June 28, 2017 (GMT -0400)
East Milton

Weather History for KMQE - September, 2013

Change the Weather History Date:

Tuesday, September 24, 2013

  Actual Average (KOWD) Record (KOWD)
Temperature  
Mean Temperature 56 °F -  
Max Temperature 64 °F 69 °F 84 °F (2010)
Min Temperature 48 °F 45 °F 32 °F (1998)
Degree Days  
Heating Degree Days 9    
Growing Degree Days 6 (Base 50)    
Moisture  
Dew Point 41 °F    
Average Humidity 60    
Maximum Humidity 80    
Minimum Humidity 43    
Precipitation  
Precipitation 0.00 in - - ()
Sea Level Pressure  
Sea Level Pressure 29.93 in    
Wind  
Wind Speed 10 mph (NW)    
Max Wind Speed 14 mph    
Max Gust Speed 18 mph    
Averages and records for this station are not official NWS values.
T = Trace of Precipitation, MM = Missing Value Source: NWS Daily Summary

Daily Weather History Graph

Daily Weather History Graph

Search for Another Location

Airport or City:

Trip Planner

Search our weather history database for the weather conditions in past years. The results will help you decide how hot, cold, wet, or windy it might be!

Date:

Astronomy

Sep. 24, 2013 Rise Set
Actual Time 6:34 AM EDT 6:37 PM EDT
Civil Twilight 6:06 AM EDT 7:05 PM EDT
Nautical Twilight 5:33 AM EDT 7:38 PM EDT
Astronomical Twilight 5:00 AM EDT 8:11 PM EDT
Moon 9:47 PM EDT (9/24) 11:51 AM EDT (9/24)
Length of Visible Light 12h 59m
Length of Day
12h 03m
Waning Gibbous, 73% of the Moon is Illuminated
Sep 24
Waning Gibbous
Sep 26
Last Quarter
Oct 4
New
Oct 11
First Quarter
Oct 18
Full

Hourly Weather History & Observations

Time (EDT) Temp. Dew Point Humidity Pressure Visibility Wind Dir Wind Speed Gust Speed Precip Events Conditions
12:54 AM 48.0 °F 37.9 °F 68% 30.00 in - WNW 8.1 mph - N/A   Unknown
1:54 AM 48.9 °F 37.9 °F 66% 30.00 in - NW 11.5 mph - N/A   Unknown
2:54 AM 51.1 °F 37.9 °F 61% 29.98 in - WNW 10.4 mph - N/A   Unknown
3:54 AM 50.0 °F 37.9 °F 63% 29.97 in - WNW 11.5 mph - N/A   Unknown
4:54 AM 52.0 °F 37.9 °F 59% 29.97 in - West 11.5 mph - N/A   Unknown
5:54 AM 50.0 °F 37.9 °F 63% 29.97 in - West 11.5 mph - N/A   Unknown
6:54 AM 54.0 °F 37.9 °F 55% 29.97 in - West 11.5 mph - N/A   Unknown
7:54 AM 55.0 °F 39.0 °F 55% 29.96 in - West 10.4 mph - N/A   Unknown
8:54 AM 59.0 °F 41.0 °F 51% 29.95 in - WNW 10.4 mph - N/A   Unknown
9:54 AM 52.0 °F 41.0 °F 66% 29.93 in - West 12.7 mph 18.4 mph N/A   Unknown
10:54 AM 54.0 °F 41.0 °F 62% 29.91 in - West 11.5 mph - N/A   Unknown
11:54 AM 57.9 °F 42.1 °F 56% 29.90 in - WNW 9.2 mph 18.4 mph N/A   Unknown
12:54 PM 61.0 °F 42.1 °F 50% 29.88 in - NNW 5.8 mph 18.4 mph N/A   Unknown
1:54 PM 62.1 °F 41.0 °F 46% 29.87 in - Variable 6.9 mph 17.3 mph N/A   Unknown
2:54 PM 64.0 °F 42.1 °F 45% 29.85 in - WNW 5.8 mph - N/A   Unknown
3:54 PM 64.0 °F 41.0 °F 43% 29.85 in - Variable 5.8 mph - N/A   Unknown
4:54 PM 64.0 °F 42.1 °F 45% 29.86 in - NNW 8.1 mph - N/A   Unknown
5:54 PM 61.0 °F 42.1 °F 50% 29.87 in - North 10.4 mph - N/A   Unknown
6:54 PM 59.0 °F 41.0 °F 51% 29.89 in - North 10.4 mph - N/A   Unknown
7:54 PM 54.0 °F 46.0 °F 75% 29.92 in - NE 13.8 mph 18.4 mph N/A   Unknown
8:54 PM 53.1 °F 45.0 °F 74% 29.93 in - ENE 8.1 mph - N/A   Unknown
9:54 PM 51.1 °F 45.0 °F 80% 29.94 in - North 5.8 mph - N/A   Unknown
10:54 PM 51.1 °F 43.0 °F 74% 29.94 in - NW 8.1 mph - N/A   Unknown
11:54 PM 50.0 °F 43.0 °F 77% 29.94 in - NNW 6.9 mph - N/A   Unknown